Simultaneous Nadir Overpasses (SNOs) Predictions

Prediction of SNOs between METOP-C and LANDSAT-8 Satellite Orbit:

Table of predicted SNOs for the next 14.0 days since TLE Epoch: 3/4/2023
Index Date (METOP-C) Time (METOP-C) Lat,Lon (METOP-C) SZA (METOP-C ) Date (LANDSAT-8) Time (LANDSAT-8) Lat,Lon (LANDSAT-8) SZA (LANDSAT-8 ) Distance(km) Time Diff (sec)
1 03/05/2023 07:37:07 81.11, 105.04 88.91 03/05/2023 07:37:38 81.11, 104.95 88.91 1.61 31
2 03/05/2023 08:27:48 -81.13, -87.23 91.06 03/05/2023 08:27:04 -81.13, -87.15 91.07 1.54 44
3 03/08/2023 03:11:28 81.11, 171.42 87.83 03/08/2023 03:11:51 81.11, 171.34 87.83 1.47 23
4 03/08/2023 04:02:09 -81.13, -20.84 92.14 03/08/2023 04:01:17 -81.13, -20.74 92.15 1.72 52
5 03/10/2023 22:45:49 81.11,-122.32 86.73 03/10/2023 22:46:03 81.11,-122.25 86.74 1.21 14
6 03/10/2023 23:36:29 -81.13, 45.81 93.19 03/10/2023 23:35:29 -81.13, 45.69 93.23 2.14 60
7 03/13/2023 18:20:08 81.11, -55.79 85.66 03/13/2023 18:20:13 81.11, -55.80 85.66 0.49 5
8 03/13/2023 19:10:47 -81.15, 112.71 94.22 03/13/2023 19:09:38 -81.15, 112.52 94.26 3.26 69
9 03/16/2023 13:03:50 -81.09,-157.24 95.48 03/16/2023 13:04:58 -81.08,-157.33 95.47 1.80 68



Historial Predications of SNOs between METOP-C and LANDSAT-8
